Location: Maignaut
(43.8886°N, 0.4051°E)
Time: 19:29:34
(UTC+00:00)

Genesis I - Pass Details

Date: 27 February 2020
Orbit: 498 x 525 km, 64.5° (Epoch: 30 March)

Event Time Altitude Azimuth Distance (km) Brightness Sun altitude
Rises 19:46:47 0° 325° (NW) 2,626 7.5 -22.9°
Reaches altitude 10° 19:48:58 10° 326° (NW) 1,731 6.4 -23.3°
Enters shadow 19:52:04 56° 331° (NNW) 609 3.6 -23.8°
